Weather History for Terre Haute, IN

Change the Weather History Date:

Monday, August 5, 2013

  Actual Average Record
Temperature  
Mean Temperature 68 °F 74 °F  
Max Temperature 82 °F 84 °F 96 °F (1956)
Min Temperature 53 °F 63 °F 51 °F (1974)
Degree Days  
Heating Degree Days 0 0  
Month to date heating degree days 0 0  
Since 1 June heating degree days 9 14  
Since 1 July heating degree days 2 1  
Cooling Degree Days 3 9  
Month to date cooling degree days 25 45  
Year to date cooling degree days 642 677  
Since 1 June cooling degree days 528 591  
Growing Degree Days 17 (Base 50)    
Moisture  
Dew Point 56 °F    
Average Humidity 66    
Maximum Humidity 93    
Minimum Humidity 39    
Precipitation  
Precipitation 0.00 in 0.11 in 2.21 in (1985)
Month to date precipitation T 0.57  
Year to date precipitation 31.76 28.24  
Sea Level Pressure  
Sea Level Pressure 30.06 in    
Wind  
Wind Speed 5 mph (South)    
Max Wind Speed 14 mph    
Max Gust Speed 20 mph    
Visibility 8 miles    
Events      
T = Trace of Precipitation, MM = Missing Value Source: NWS Daily Summary

Daily Weather History Graph

Daily Weather History Graph

Search for Another Location

Airport:

Trip Planner

Search our weather history database for the weather conditions in past years. The results will help you decide how hot, cold, wet, or windy it might be!

Date:

Astronomy

Aug. 05, 2013 Rise Set
Actual Time 6:52 AM EDT 8:56 PM EDT
Civil Twilight 6:23 AM EDT 9:26 PM EDT
Nautical Twilight 5:46 AM EDT 10:02 PM EDT
Astronomical Twilight 5:07 AM EDT 10:41 PM EDT
Moon 5:47 AM EDT (8/5) 7:57 PM EDT (8/5)
Length of Visible Light 15h 03m
Length of Day
14h 04m
Waning Crescent, 1% of the Moon is Illuminated
Aug 5
Waning Crescent
Aug 6
New
Aug 14
First Quarter
Aug 20
Full
Aug 28
Last Quarter

Hourly Weather History & Observations

Time (EDT) Temp. Heat Index Dew Point Humidity Pressure Visibility Wind Dir Wind Speed Gust Speed Precip Events Conditions
12:53 AM 59.0 °F - 55.9 °F 90% 30.12 in 10.0 mi Calm Calm - N/A   Clear
1:53 AM 57.0 °F - 55.0 °F 93% 30.11 in 10.0 mi Calm Calm - N/A   Clear
2:53 AM 57.9 °F - 55.0 °F 90% 30.11 in 10.0 mi Calm Calm - N/A   Clear
3:26 AM 55.4 °F - 53.6 °F 94% 30.11 in 2.5 mi Calm Calm - N/A   Clear
3:33 AM 55.4 °F - 53.6 °F 94% 30.11 in 7.0 mi Calm Calm - N/A   Clear
3:37 AM 55.4 °F - 53.6 °F 94% 30.11 in 1.8 mi Calm Calm - N/A   Clear
3:47 AM 55.4 °F - 51.8 °F 88% 30.11 in 4.0 mi Calm Calm - N/A   Clear
3:53 AM 55.0 °F - 52.0 °F 89% 30.10 in 6.0 mi Calm Calm - N/A   Clear
4:24 AM 55.4 °F - 53.6 °F 94% 30.11 in 1.5 mi Calm Calm - N/A   Clear
4:34 AM 55.4 °F - 51.8 °F 88% 30.11 in 5.0 mi Calm Calm - N/A   Clear
4:53 AM 55.0 °F - 54.0 °F 96% 30.09 in 10.0 mi Calm Calm - N/A   Clear
5:43 AM 55.4 °F - 51.8 °F 88% 30.09 in 1.5 mi Calm Calm - N/A   Clear
5:53 AM 55.0 °F - 53.1 °F 93% 30.09 in 0.8 mi Calm Calm - N/A   Clear
6:06 AM 53.6 °F - 51.8 °F 94% 30.10 in 3.0 mi Calm Calm - N/A   Clear
6:53 AM 54.0 °F - 52.0 °F 93% 30.10 in 6.0 mi Calm Calm - N/A   Clear
7:53 AM 59.0 °F - 55.9 °F 90% 30.11 in 10.0 mi Calm Calm - N/A   Clear
8:53 AM 64.0 °F - 59.0 °F 84% 30.10 in 10.0 mi SSE 3.5 mph - N/A   Clear
9:53 AM 71.1 °F - 57.9 °F 63% 30.09 in 10.0 mi South 6.9 mph - N/A   Clear
10:53 AM 75.0 °F - 55.9 °F 51% 30.08 in 10.0 mi South 9.2 mph - N/A   Clear
11:53 AM 77.0 °F - 54.0 °F 45% 30.07 in 10.0 mi South 10.4 mph - N/A   Clear
12:53 PM 80.1 °F 80.0 °F 54.0 °F 40% 30.06 in 10.0 mi SSE 13.8 mph - N/A   Clear
1:53 PM 81.0 °F 80.5 °F 54.0 °F 39% 30.04 in 10.0 mi South 9.2 mph 19.6 mph N/A   Clear
2:53 PM 81.0 °F 80.8 °F 55.9 °F 42% 30.03 in 10.0 mi SSE 8.1 mph - N/A   Overcast
3:53 PM 80.1 °F 80.1 °F 55.0 °F 42% 30.01 in 10.0 mi SSW 6.9 mph - N/A   Overcast
4:53 PM 80.1 °F 80.4 °F 57.0 °F 45% 29.99 in 10.0 mi SSE 9.2 mph - N/A   Overcast
5:53 PM 79.0 °F - 57.9 °F 48% 29.97 in 10.0 mi SSE 8.1 mph - N/A   Overcast
6:53 PM 78.1 °F - 59.0 °F 52% 29.96 in 10.0 mi South 4.6 mph - N/A   Overcast
7:53 PM 78.1 °F - 60.1 °F 54% 29.94 in 10.0 mi South 4.6 mph - N/A   Overcast
8:53 PM 73.9 °F - 61.0 °F 64% 29.92 in 10.0 mi SE 3.5 mph - N/A   Overcast
9:53 PM 73.0 °F - 62.1 °F 68% 29.93 in 10.0 mi SE 3.5 mph - N/A   Overcast
10:53 PM 72.0 °F - 61.0 °F 68% 29.94 in 10.0 mi SSW 3.5 mph - N/A   Mostly Cloudy
11:53 PM 72.0 °F - 63.0 °F 73% 29.95 in 10.0 mi SW 3.5 mph - N/A   Overcast